Flag for Morocco Weather past 2 weeks in Marrakech, Morocco

Now
81 °F

Pleasantly warm.


Feels Like: 80 °F
Forecast: 53 / 84 °F
Wind: 5 mph from Northwest

Location: Marrakech Airport

Current Time: Apr 28, 2015 at 3:51:24 PM

Latest Report: Apr 28, 2015 at 3:30 PM


Visibility: N/A

Pressure: 30.04 "Hg

Humidity: 30%

Dew point: 46 °F

Location of MarrakechLocation

Historic Weather in Marrakech — Graph

°F

Marrakech temperature yesterday

Maximum temperature yesterday: 81 °F (at 4:30 PM)
Minimum temperature yesterday: 61 °F (at 3:30 AM)
Average temperature yesterday: 69 °F

Past Weeks' High & Low Weather Summary

 TemperatureHumidityPressure
High86 °F (Apr 23, 4:30 PM)100% (Apr 14, 2:00 AM)30.12 "Hg (Apr 14, 2:00 AM)
Low52 °F (Apr 15, 5:30 AM)23% (Apr 25, 5:00 PM)29.92 "Hg (Apr 20, 4:30 PM)
Average67 °F66%30.04 "Hg
* Reported Apr 13 3:00 PM — Apr 28 3:00 PM, Marrakech, Weather by CustomWeather, © 2015

Note: Actual official high and low records may vary slightly from our data, if they occured in-between our weather recording intervals... More about our weather records

Advertising

Marrakech weather history for previous 24 hours

 ConditionsComfort  
Time TempWeatherWind HumidityBarometerVisibility
3:00 PM
Tue, Apr 28
81 °FPartly sunny.5 mph30%30.07 "HgN/A
2:30 PM81 °FPartly sunny.5 mph30%30.07 "HgN/A
2:00 PM79 °FPartly sunny.6 mph32%30.07 "HgN/A
1:00 PM75 °FPassing clouds.7 mph39%30.09 "HgN/A
12:30 PM73 °FPassing clouds.7 mph44%30.09 "HgN/A
12:00 PM72 °FSunny.6 mph47%30.09 "Hg10 mi
11:30 AM70 °FPassing clouds.7 mph53%30.09 "HgN/A
11:00 AM70 °FPassing clouds.6 mph53%30.09 "HgN/A
10:30 AM68 °FPassing clouds.3 mph56%30.09 "HgN/A
10:00 AM66 °FPassing clouds.3 mph60%30.07 "HgN/A
9:30 AM66 °FSunny.2 mph60%30.07 "Hg10 mi
9:00 AM63 °FSunny.No wind68%30.07 "Hg10 mi
8:30 AM61 °FPassing clouds.3 mph72%30.07 "HgN/A
8:00 AM57 °FSunny.2 mph82%30.07 "Hg10 mi
7:30 AM54 °FSunny.3 mph88%30.07 "Hg10 mi
7:00 AM54 °FSunny.5 mph88%30.04 "Hg10 mi
6:30 AM55 °FClear.1 mph82%30.04 "Hg10 mi
6:00 AM57 °FClear.No wind82%30.04 "Hg10 mi
5:30 AM57 °FCool.1 mph82%30.04 "HgN/A
4:30 AM57 °FClear.3 mph77%30.04 "Hg10 mi
4:00 AM57 °FClear.5 mph77%30.04 "Hg10 mi
3:30 AM59 °FCool.6 mph72%30.04 "HgN/A
3:00 AM59 °FClear.5 mph72%30.07 "Hg10 mi
2:30 AM61 °FClear.6 mph68%30.07 "Hg10 mi
2:00 AM61 °FPassing clouds.8 mph68%30.07 "HgN/A
1:30 AM61 °FClear.7 mph68%30.07 "Hg10 mi
1:00 AM63 °FClear.7 mph64%30.09 "Hg10 mi
12:30 AM63 °FClear.5 mph64%30.09 "Hg10 mi
12:00 AM63 °FClear.6 mph64%30.09 "Hg10 mi
11:00 PM
Mon, Apr 27
64 °FClear.12 mph64%30.09 "Hg10 mi
10:30 PM66 °FPassing clouds.10 mph64%30.09 "HgN/A
10:00 PM68 °FPassing clouds.15 mph60%30.07 "HgN/A
9:30 PM70 °FPassing clouds.14 mph57%30.07 "HgN/A
9:00 PM73 °FPassing clouds.15 mph47%30.07 "HgN/A
8:30 PM77 °FClear.9 mph28%30.04 "Hg10 mi
8:00 PM77 °FPassing clouds.7 mph28%30.04 "HgN/A
7:30 PM79 °FPartly sunny.3 mph26%30.04 "HgN/A
7:00 PM81 °FPartly sunny.6 mph26%30.04 "HgN/A
6:30 PM81 °FPartly sunny.7 mph26%30.01 "HgN/A
6:00 PM81 °FPartly sunny.2 mph28%30.04 "HgN/A
5:30 PM81 °FPassing clouds.5 mph28%30.04 "HgN/A
5:00 PM81 °FSunny.2 mph32%30.04 "Hg10 mi
4:30 PM81 °FPassing clouds.6 mph32%30.04 "HgN/A
4:00 PM79 °FPassing clouds.5 mph34%30.04 "HgN/A
3:30 PM79 °FPassing clouds.7 mph34%30.04 "HgN/A
3:00 PM79 °FPassing clouds.5 mph37%30.04 "HgN/A
Weather by CustomWeather, © 2015

See weather overviewHow to use our weather pages